Time,TemperatureF,DewpointF,PressureIn,WindDirection,WindDirectionDegrees,WindSpeedMPH,WindSpeedGustMPH,Humidity,HourlyPrecipIn,Conditions,Clouds,dailyrainin,SolarRadiationWatts/m^2,SoftwareType,DateUTC
2013-04-06 00:00:00,40.5,24.2,29.91,NW,319,5.0,14.0,52,0.00,,,0.00,0,Wunderground v.1.15,2013-04-06 04:00:00,
2013-04-06 00:04:00,40.3,24.1,29.91,NW,310,5.0,14.0,52,0.00,,,0.00,0,Wunderground v.1.15,2013-04-06 04:04:00,
2013-04-06 00:10:00,40.3,24.1,29.92,NW,315,6.0,9.0,52,0.00,,,0.00,0,Wunderground v.1.15,2013-04-06 04:10:00,
2013-04-06 00:14:00,40.2,24.0,29.92,WNW,294,6.0,9.0,52,0.00,,,0.00,0,Wunderground v.1.15,2013-04-06 04:14:00,
2013-04-06 00:20:00,40.2,23.5,29.92,NW,313,7.0,12.0,51,0.00,,,0.00,0,Wunderground v.1.15,2013-04-06 04:20:00,
2013-04-06 00:26:00,40.2,23.0,29.92,NW,314,9.0,14.0,50,0.00,,,0.00,0,Wunderground v.1.15,2013-04-06 04:26:00,
2013-04-06 00:32:00,39.9,22.7,29.92,WNW,290,7.0,9.0,50,0.00,,,0.00,0,Wunderground v.1.15,2013-04-06 04:32:00,
2013-04-06 00:38:00,39.8,23.1,29.92,NW,309,5.0,9.0,51,0.00,,,0.00,0,Wunderground v.1.15,2013-04-06 04:38:00,
2013-04-06 00:44:00,39.6,22.9,29.93,WNW,298,4.0,9.0,51,0.00,,,0.00,0,Wunderground v.1.15,2013-04-06 04:44:00,
2013-04-06 00:50:00,39.3,23.1,29.93,NW,304,5.0,9.0,52,0.00,,,0.00,0,Wunderground v.1.15,2013-04-06 04:50:00,
2013-04-06 00:56:00,39.2,23.0,29.93,NW,316,5.0,9.0,52,0.00,,,0.00,0,Wunderground v.1.15,2013-04-06 04:56:00,
2013-04-06 01:02:00,39.1,22.9,29.93,West,276,5.0,10.0,52,0.00,,,0.00,0,Wunderground v.1.15,2013-04-06 05:02:00,
2013-04-06 01:08:00,38.9,22.8,29.93,NW,313,5.0,10.0,52,0.00,,,0.00,0,Wunderground v.1.15,2013-04-06 05:08:00,
2013-04-06 01:14:00,38.8,22.2,29.93,WNW,282,5.0,8.0,51,0.00,,,0.00,0,Wunderground v.1.15,2013-04-06 05:14:00,
2013-04-06 01:20:00,38.6,21.5,29.93,WNW,293,6.0,9.0,50,0.00,,,0.00,0,Wunderground v.1.15,2013-04-06 05:20:00,
2013-04-06 01:26:00,38.5,21.5,29.94,NW,319,6.0,12.0,50,0.00,,,0.00,0,Wunderground v.1.15,2013-04-06 05:26:00,
2013-04-06 01:32:00,38.5,21.0,29.94,NW,304,8.0,13.0,49,0.00,,,0.00,0,Wunderground v.1.15,2013-04-06 05:32:00,
2013-04-06 01:38:00,38.3,20.8,29.94,WNW,290,7.0,13.0,49,0.00,,,0.00,0,Wunderground v.1.15,2013-04-06 05:38:00,
2013-04-06 01:44:00,38.2,20.7,29.94,NW,314,8.0,10.0,49,0.00,,,0.00,0,Wunderground v.1.15,2013-04-06 05:44:00,
2013-04-06 01:50:00,38.0,21.0,29.94,NW,306,7.0,10.0,50,0.00,,,0.00,0,Wunderground v.1.15,2013-04-06 05:50:00,
2013-04-06 01:56:00,38.0,21.0,29.95,NW,317,7.0,10.0,50,0.00,,,0.00,0,Wunderground v.1.15,2013-04-06 05:56:00,
2013-04-06 02:02:00,37.8,21.3,29.95,NW,313,5.0,8.0,51,0.00,,,0.00,0,Wunderground v.1.15,2013-04-06 06:02:00,
2013-04-06 02:08:00,37.6,21.1,29.95,NW,311,5.0,10.0,51,0.00,,,0.00,0,Wunderground v.1.15,2013-04-06 06:08:00,
2013-04-06 02:14:00,37.5,21.0,29.96,NW,311,5.0,10.0,51,0.00,,,0.00,0,Wunderground v.1.15,2013-04-06 06:14:00,
2013-04-06 02:20:00,37.3,20.8,29.96,WNW,296,3.0,3.0,51,0.00,,,0.00,0,Wunderground v.1.15,2013-04-06 06:20:00,
2013-04-06 02:26:00,37.2,21.2,29.96,WNW,296,2.0,10.0,52,0.00,,,0.00,0,Wunderground v.1.15,2013-04-06 06:26:00,
2013-04-06 02:32:00,37.2,20.7,29.96,NW,311,5.0,10.0,51,0.00,,,0.00,0,Wunderground v.1.15,2013-04-06 06:32:00,
2013-04-06 02:38:00,37.0,20.1,29.96,NW,307,8.0,13.0,50,0.00,,,0.00,0,Wunderground v.1.15,2013-04-06 06:38:00,
2013-04-06 02:44:00,36.9,19.5,29.97,WNW,294,8.0,10.0,49,0.00,,,0.00,0,Wunderground v.1.15,2013-04-06 06:44:00,
2013-04-06 02:50:00,36.8,18.9,29.97,NW,309,6.0,10.0,48,0.00,,,0.00,0,Wunderground v.1.15,2013-04-06 06:50:00,
2013-04-06 02:56:00,36.8,17.9,29.98,WNW,302,7.0,11.0,46,0.00,,,0.00,0,Wunderground v.1.15,2013-04-06 06:56:00,
2013-04-06 03:02:00,36.8,16.4,29.98,WNW,302,7.0,12.0,43,0.00,,,0.00,0,Wunderground v.1.15,2013-04-06 07:02:00,
2013-04-06 03:08:00,36.8,15.3,29.98,NW,306,9.0,18.0,41,0.00,,,0.00,0,Wunderground v.1.15,2013-04-06 07:08:00,
2013-04-06 03:14:00,36.6,14.5,29.98,NW,304,9.0,18.0,40,0.00,,,0.00,0,Wunderground v.1.15,2013-04-06 07:14:00,
2013-04-06 03:20:00,36.5,14.4,29.98,NW,308,8.0,18.0,40,0.00,,,0.00,0,Wunderground v.1.15,2013-04-06 07:20:00,
2013-04-06 03:26:00,36.3,14.8,29.99,NW,319,6.0,18.0,41,0.00,,,0.00,0,Wunderground v.1.15,2013-04-06 07:26:00,
2013-04-06 03:32:00,36.2,14.7,29.99,NW,311,5.0,18.0,41,0.00,,,0.00,0,Wunderground v.1.15,2013-04-06 07:32:00,
2013-04-06 03:38:00,35.9,15.0,29.99,WNW,294,4.0,18.0,42,0.00,,,0.00,0,Wunderground v.1.15,2013-04-06 07:38:00,
2013-04-06 03:44:00,35.9,15.0,30.01,West,278,6.0,18.0,42,0.00,,,0.00,0,Wunderground v.1.15,2013-04-06 07:44:00,
2013-04-06 03:50:00,35.8,14.9,30.01,WNW,287,7.0,18.0,42,0.00,,,0.00,0,Wunderground v.1.15,2013-04-06 07:50:00,
2013-04-06 03:56:00,35.5,15.2,30.01,WNW,302,6.0,18.0,43,0.00,,,0.00,0,Wunderground v.1.15,2013-04-06 07:56:00,
2013-04-06 04:02:00,35.3,15.5,30.01,NW,313,6.0,18.0,44,0.00,,,0.00,0,Wunderground v.1.15,2013-04-06 08:02:00,
2013-04-06 04:08:00,35.3,16.0,30.01,NW,317,6.0,18.0,45,0.00,,,0.00,0,Wunderground v.1.15,2013-04-06 08:08:00,
2013-04-06 04:14:00,35.2,15.4,30.02,WNW,302,6.0,11.0,44,0.00,,,0.00,0,Wunderground v.1.15,2013-04-06 08:14:00,
2013-04-06 04:20:00,35.2,15.4,30.02,WNW,302,6.0,11.0,44,0.00,,,0.00,0,Wunderground v.1.15,2013-04-06 08:20:00,
2013-04-06 04:26:00,35.0,15.3,30.03,NW,306,8.0,11.0,44,0.00,,,0.00,0,Wunderground v.1.15,2013-04-06 08:26:00,
2013-04-06 04:32:00,34.9,15.2,30.03,WNW,294,7.0,11.0,44,0.00,,,0.00,0,Wunderground v.1.15,2013-04-06 08:32:00,
2013-04-06 04:38:00,34.7,15.0,30.03,WNW,296,6.0,11.0,44,0.00,,,0.00,0,Wunderground v.1.15,2013-04-06 08:38:00,
2013-04-06 04:44:00,34.7,14.5,30.04,WNW,300,6.0,11.0,43,0.00,,,0.00,0,Wunderground v.1.15,2013-04-06 08:44:00,
2013-04-06 04:50:00,34.6,13.8,30.04,NW,307,5.0,5.0,42,0.00,,,0.00,0,Wunderground v.1.15,2013-04-06 08:50:00,
2013-04-06 04:56:00,34.6,13.8,30.05,NW,310,5.0,11.0,42,0.00,,,0.00,0,Wunderground v.1.15,2013-04-06 08:56:00,
2013-04-06 05:02:00,34.3,15.1,30.05,NW,315,6.0,11.0,45,0.00,,,0.00,0,Wunderground v.1.15,2013-04-06 09:02:00,
2013-04-06 05:08:00,34.1,15.9,30.05,WNW,296,6.0,13.0,47,0.00,,,0.00,0,Wunderground v.1.15,2013-04-06 09:08:00,
2013-04-06 05:14:00,34.0,15.9,30.07,NW,311,6.0,13.0,47,0.00,,,0.00,0,Wunderground v.1.15,2013-04-06 09:14:00,
2013-04-06 05:20:00,33.8,16.2,30.07,NW,315,5.0,5.0,48,0.00,,,0.00,0,Wunderground v.1.15,2013-04-06 09:20:00,
2013-04-06 05:26:00,33.7,15.6,30.08,NW,323,6.0,13.0,47,0.00,,,0.00,0,Wunderground v.1.15,2013-04-06 09:26:00,
2013-04-06 05:32:00,33.7,15.1,30.08,NW,319,8.0,13.0,46,0.00,,,0.00,0,Wunderground v.1.15,2013-04-06 09:32:00,
2013-04-06 05:38:00,33.5,14.4,30.08,NW,324,7.0,13.0,45,0.00,,,0.00,0,Wunderground v.1.15,2013-04-06 09:38:00,
2013-04-06 05:44:00,33.4,12.7,30.09,NNW,342,7.0,13.0,42,0.00,,,0.00,0,Wunderground v.1.15,2013-04-06 09:44:00,
2013-04-06 05:50:00,33.4,12.2,30.09,NW,326,8.0,13.0,41,0.00,,,0.00,0,Wunderground v.1.15,2013-04-06 09:50:00,
2013-04-06 05:56:00,33.4,12.2,30.10,NW,318,9.0,13.0,41,0.00,,,0.00,0,Wunderground v.1.15,2013-04-06 09:56:00,
2013-04-06 06:02:00,33.2,11.5,30.10,NW,319,7.0,13.0,40,0.00,,,0.00,0,Wunderground v.1.15,2013-04-06 10:02:00,
2013-04-06 06:08:00,33.1,11.9,30.10,NW,314,6.0,13.0,41,0.00,,,0.00,0,Wunderground v.1.15,2013-04-06 10:08:00,
2013-04-06 06:14:00,32.9,11.7,30.11,NW,315,6.0,14.0,41,0.00,,,0.00,0,Wunderground v.1.15,2013-04-06 10:14:00,
2013-04-06 06:20:00,32.8,11.1,30.11,NW,311,9.0,9.0,40,0.00,,,0.00,7,Wunderground v.1.15,2013-04-06 10:20:00,
2013-04-06 06:26:00,32.8,11.1,30.13,NW,322,9.0,12.0,40,0.00,,,0.00,11,Wunderground v.1.15,2013-04-06 10:26:00,
2013-04-06 06:32:00,32.7,11.0,30.13,NW,309,9.0,9.0,40,0.00,,,0.00,14,Wunderground v.1.15,2013-04-06 10:32:00,
2013-04-06 06:38:00,32.5,10.3,30.13,WNW,302,7.0,9.0,39,0.00,,,0.00,21,Wunderground v.1.15,2013-04-06 10:38:00,
2013-04-06 06:44:00,32.5,10.3,30.13,NW,309,7.0,8.0,39,0.00,,,0.00,26,Wunderground v.1.15,2013-04-06 10:44:00,
2013-04-06 06:50:00,32.5,10.3,30.13,NW,309,6.0,9.0,39,0.00,,,0.00,37,Wunderground v.1.15,2013-04-06 10:50:00,
2013-04-06 06:56:00,32.5,10.3,30.14,North,360,7.0,9.0,39,0.00,,,0.00,53,Wunderground v.1.15,2013-04-06 10:56:00,
2013-04-06 07:02:00,32.5,9.7,30.14,NW,325,7.0,11.0,38,0.00,,,0.00,58,Wunderground v.1.15,2013-04-06 11:02:00,
2013-04-06 07:08:00,32.7,9.8,30.14,NW,319,8.0,13.0,38,0.00,,,0.00,132,Wunderground v.1.15,2013-04-06 11:08:00,
2013-04-06 07:14:00,32.8,10.5,30.15,WNW,302,6.0,13.0,39,0.00,,,0.00,125,Wunderground v.1.15,2013-04-06 11:14:00,
2013-04-06 07:20:00,32.8,9.9,30.15,WNW,286,7.0,13.0,38,0.00,,,0.00,149,Wunderground v.1.15,2013-04-06 11:20:00,
2013-04-06 07:26:00,32.7,9.8,30.16,NNW,327,10.0,13.0,38,0.00,,,0.00,125,Wunderground v.1.15,2013-04-06 11:26:00,
2013-04-06 07:34:00,32.7,9.3,30.16,NW,317,9.0,13.0,37,0.00,,,0.00,178,Wunderground v.1.15,2013-04-06 11:34:00,
2013-04-06 07:40:00,32.7,7.4,30.17,NW,314,11.0,11.0,34,0.00,,,0.00,232,Wunderground v.1.15,2013-04-06 11:40:00,
2013-04-06 07:46:00,32.9,8.8,30.17,WNW,282,10.0,16.0,36,0.00,,,0.00,185,Wunderground v.1.15,2013-04-06 11:46:00,
2013-04-06 07:52:00,33.1,9.6,30.17,NW,323,7.0,13.0,37,0.00,,,0.00,278,Wunderground v.1.15,2013-04-06 11:52:00,
2013-04-06 07:58:00,32.9,8.8,30.19,NW,314,8.0,15.0,36,0.00,,,0.00,237,Wunderground v.1.15,2013-04-06 11:58:00,
2013-04-06 08:04:00,32.7,7.4,30.19,NW,325,10.0,16.0,34,0.00,,,0.00,160,Wunderground v.1.15,2013-04-06 12:04:00,
2013-04-06 08:10:00,32.7,6.0,30.19,WNW,296,11.0,11.0,32,0.00,,,0.00,264,Wunderground v.1.15,2013-04-06 12:10:00,
2013-04-06 08:16:00,32.5,5.2,30.19,NNW,333,12.0,16.0,31,0.00,,,0.00,334,Wunderground v.1.15,2013-04-06 12:16:00,
2013-04-06 08:22:00,32.4,5.8,30.19,WNW,294,12.0,19.0,32,0.00,,,0.00,302,Wunderground v.1.15,2013-04-06 12:22:00,
2013-04-06 08:28:00,32.5,5.9,30.20,NW,324,12.0,19.0,32,0.00,,,0.00,366,Wunderground v.1.15,2013-04-06 12:28:00,
2013-04-06 08:34:00,32.7,5.3,30.20,WNW,302,10.0,14.0,31,0.00,,,0.00,425,Wunderground v.1.15,2013-04-06 12:34:00,
2013-04-06 08:40:00,32.5,5.2,30.20,NW,304,11.0,16.0,31,0.00,,,0.00,332,Wunderground v.1.15,2013-04-06 12:40:00,
2013-04-06 08:46:00,32.9,5.5,30.20,NNW,346,11.0,16.0,31,0.00,,,0.00,362,Wunderground v.1.15,2013-04-06 12:46:00,
2013-04-06 08:52:00,33.1,5.0,30.20,NW,312,9.0,16.0,30,0.00,,,0.00,425,Wunderground v.1.15,2013-04-06 12:52:00,
2013-04-06 08:58:00,33.7,4.0,30.21,NW,319,9.0,19.0,28,0.00,,,0.00,504,Wunderground v.1.15,2013-04-06 12:58:00,
2013-04-06 09:04:00,32.9,2.5,30.21,NW,317,12.0,19.0,27,0.00,,,0.00,527,Wunderground v.1.15,2013-04-06 13:04:00,
2013-04-06 09:10:00,33.1,3.5,30.21,North,360,12.0,12.0,28,0.00,,,0.00,545,Wunderground v.1.15,2013-04-06 13:10:00,
2013-04-06 09:16:00,32.9,3.3,30.21,North,360,13.0,29.0,28,0.00,,,0.00,564,Wunderground v.1.15,2013-04-06 13:16:00,
2013-04-06 09:22:00,33.1,3.5,30.21,NNW,332,12.0,29.0,28,0.00,,,0.00,582,Wunderground v.1.15,2013-04-06 13:22:00,
2013-04-06 09:28:00,33.4,3.7,30.22,NNW,342,10.0,29.0,28,0.00,,,0.00,601,Wunderground v.1.15,2013-04-06 13:28:00,
2013-04-06 09:34:00,33.5,3.8,30.22,NW,324,11.0,29.0,28,0.00,,,0.00,613,Wunderground v.1.15,2013-04-06 13:34:00,
2013-04-06 09:40:00,33.2,2.8,30.23,WNW,290,11.0,29.0,27,0.00,,,0.00,635,Wunderground v.1.15,2013-04-06 13:40:00,
2013-04-06 09:46:00,33.5,3.0,30.23,NW,313,12.0,29.0,27,0.00,,,0.00,654,Wunderground v.1.15,2013-04-06 13:46:00,
2013-04-06 09:52:00,33.8,4.1,30.23,NW,316,10.0,15.0,28,0.00,,,0.00,666,Wunderground v.1.15,2013-04-06 13:52:00,
2013-04-06 09:58:00,33.8,3.3,30.24,North,355,10.0,29.0,27,0.00,,,0.00,686,Wunderground v.1.15,2013-04-06 13:58:00,
2013-04-06 10:04:00,34.3,3.7,30.24,NNE,15,9.0,29.0,27,0.00,,,0.00,700,Wunderground v.1.15,2013-04-06 14:04:00,
2013-04-06 10:10:00,34.7,4.9,30.24,NNW,339,9.0,14.0,28,0.00,,,0.00,715,Wunderground v.1.15,2013-04-06 14:10:00,
2013-04-06 10:16:00,35.2,2.8,30.24,NW,312,8.0,19.0,25,0.00,,,0.00,729,Wunderground v.1.15,2013-04-06 14:16:00,
2013-04-06 10:22:00,35.0,2.7,30.24,WNW,296,10.0,12.0,25,0.00,,,0.00,742,Wunderground v.1.15,2013-04-06 14:22:00,
2013-04-06 10:28:00,35.6,3.2,30.25,NNW,335,9.0,14.0,25,0.00,,,0.00,756,Wunderground v.1.15,2013-04-06 14:28:00,
2013-04-06 10:38:00,35.5,1.3,30.25,NW,311,10.0,19.0,23,0.00,,,0.00,772,Wunderground v.1.15,2013-04-06 14:38:00,
2013-04-06 10:44:00,35.5,1.3,30.25,NW,326,12.0,15.0,23,0.00,,,0.00,786,Wunderground v.1.15,2013-04-06 14:44:00,
2013-04-06 10:50:00,35.5,1.3,30.25,NNW,333,12.0,16.0,23,0.00,,,0.00,800,Wunderground v.1.15,2013-04-06 14:50:00,
2013-04-06 10:56:00,35.8,1.5,30.25,West,279,10.0,16.0,23,0.00,,,0.00,810,Wunderground v.1.15,2013-04-06 14:56:00,
2013-04-06 11:02:00,35.8,1.5,30.25,NNW,346,11.0,14.0,23,0.00,,,0.00,821,Wunderground v.1.15,2013-04-06 15:02:00,
2013-04-06 11:08:00,36.2,1.9,30.25,WNW,302,11.0,14.0,23,0.00,,,0.00,833,Wunderground v.1.15,2013-04-06 15:08:00,
2013-04-06 11:14:00,36.3,2.0,30.25,NNW,341,10.0,12.0,23,0.00,,,0.00,840,Wunderground v.1.15,2013-04-06 15:14:00,
2013-04-06 11:20:00,36.8,2.4,30.25,NW,321,10.0,10.0,23,0.00,,,0.00,849,Wunderground v.1.15,2013-04-06 15:20:00,
2013-04-06 11:26:00,36.8,2.4,30.25,NNE,13,10.0,14.0,23,0.00,,,0.00,854,Wunderground v.1.15,2013-04-06 15:26:00,
2013-04-06 11:32:00,37.5,3.0,30.25,NW,314,9.0,11.0,23,0.00,,,0.00,865,Wunderground v.1.15,2013-04-06 15:32:00,
2013-04-06 11:38:00,37.3,0.9,30.25,NW,319,10.0,16.0,21,0.00,,,0.00,874,Wunderground v.1.15,2013-04-06 15:38:00,
2013-04-06 11:44:00,37.6,1.1,30.26,NW,320,11.0,12.0,21,0.00,,,0.00,879,Wunderground v.1.15,2013-04-06 15:44:00,
2013-04-06 11:50:00,37.8,1.3,30.26,North,355,11.0,12.0,21,0.00,,,0.00,886,Wunderground v.1.15,2013-04-06 15:50:00,
2013-04-06 11:56:00,38.0,1.5,30.26,NNE,19,10.0,13.0,21,0.00,,,0.00,888,Wunderground v.1.15,2013-04-06 15:56:00,
2013-04-06 12:02:00,37.6,1.1,30.26,WNW,303,11.0,29.0,21,0.00,,,0.00,895,Wunderground v.1.15,2013-04-06 16:02:00,
2013-04-06 12:08:00,37.8,1.3,30.26,NW,311,14.0,29.0,21,0.00,,,0.00,904,Wunderground v.1.15,2013-04-06 16:08:00,
2013-04-06 12:14:00,38.9,2.2,30.25,West,264,10.0,23.0,21,0.00,,,0.00,904,Wunderground v.1.15,2013-04-06 16:14:00,
2013-04-06 12:20:00,39.2,2.5,30.25,West,281,7.0,23.0,21,0.00,,,0.00,904,Wunderground v.1.15,2013-04-06 16:20:00,
2013-04-06 12:26:00,39.3,1.5,30.25,NW,307,7.0,23.0,20,0.00,,,0.00,905,Wunderground v.1.15,2013-04-06 16:26:00,
2013-04-06 12:32:00,39.2,1.4,30.25,NW,323,10.0,10.0,20,0.00,,,0.00,909,Wunderground v.1.15,2013-04-06 16:32:00,
2013-04-06 12:38:00,39.1,1.3,30.25,NW,321,11.0,23.0,20,0.00,,,0.00,907,Wunderground v.1.15,2013-04-06 16:38:00,
2013-04-06 12:44:00,39.1,1.3,30.25,West,278,11.0,18.0,20,0.00,,,0.00,909,Wunderground v.1.15,2013-04-06 16:44:00,
2013-04-06 12:50:00,40.1,3.2,30.25,NNW,327,10.0,23.0,21,0.00,,,0.00,907,Wunderground v.1.15,2013-04-06 16:50:00,
2013-04-06 12:56:00,40.1,1.1,30.25,NW,313,9.0,23.0,19,0.00,,,0.00,909,Wunderground v.1.15,2013-04-06 16:56:00,
2013-04-06 13:02:00,39.8,1.9,30.25,WNW,300,10.0,23.0,20,0.00,,,0.00,907,Wunderground v.1.15,2013-04-06 17:02:00,
2013-04-06 13:08:00,39.9,0.9,30.25,SSW,211,11.0,23.0,19,0.00,,,0.00,905,Wunderground v.1.15,2013-04-06 17:08:00,
2013-04-06 13:14:00,40.9,1.7,30.25,WNW,298,9.0,22.0,19,0.00,,,0.00,900,Wunderground v.1.15,2013-04-06 17:14:00,
2013-04-06 13:20:00,41.2,0.8,30.25,WNW,300,9.0,22.0,18,0.00,,,0.00,898,Wunderground v.1.15,2013-04-06 17:20:00,
2013-04-06 13:26:00,41.3,0.9,30.25,NW,325,9.0,22.0,18,0.00,,,0.00,895,Wunderground v.1.15,2013-04-06 17:26:00,
2013-04-06 13:32:00,41.2,2.0,30.25,West,267,9.0,22.0,19,0.00,,,0.00,888,Wunderground v.1.15,2013-04-06 17:32:00,
2013-04-06 13:38:00,41.5,2.2,30.25,NW,308,8.0,22.0,19,0.00,,,0.00,882,Wunderground v.1.15,2013-04-06 17:38:00,
2013-04-06 13:44:00,41.3,0.9,30.25,NNW,338,8.0,22.0,18,0.00,,,0.00,872,Wunderground v.1.15,2013-04-06 17:44:00,
2013-04-06 13:50:00,41.8,1.3,30.25,NW,313,8.0,22.0,18,0.00,,,0.00,865,Wunderground v.1.15,2013-04-06 17:50:00,
2013-04-06 13:56:00,42.5,1.9,30.25,NNE,33,7.0,22.0,18,0.00,,,0.00,856,Wunderground v.1.15,2013-04-06 17:56:00,
2013-04-06 14:02:00,42.2,1.6,30.25,NW,306,6.0,12.0,18,0.00,,,0.00,849,Wunderground v.1.15,2013-04-06 18:02:00,
2013-04-06 14:08:00,42.1,1.6,30.25,NW,304,7.0,22.0,18,0.00,,,0.00,842,Wunderground v.1.15,2013-04-06 18:08:00,
2013-04-06 14:14:00,42.6,0.7,30.26,NW,323,6.0,13.0,17,0.00,,,0.00,831,Wunderground v.1.15,2013-04-06 18:14:00,
2013-04-06 14:20:00,42.9,-0.3,30.26,SSW,209,6.0,13.0,16,0.00,,,0.00,823,Wunderground v.1.15,2013-04-06 18:20:00,
2013-04-06 14:26:00,43.3,1.3,30.25,NW,318,6.0,13.0,17,0.00,,,0.00,812,Wunderground v.1.15,2013-04-06 18:26:00,
2013-04-06 14:32:00,43.2,-0.1,30.25,NNW,336,7.0,13.0,16,0.00,,,0.00,803,Wunderground v.1.15,2013-04-06 18:32:00,
2013-04-06 14:38:00,43.3,0.0,30.25,WNW,300,8.0,15.0,16,0.00,,,0.00,791,Wunderground v.1.15,2013-04-06 18:38:00,
2013-04-06 14:44:00,43.6,0.3,30.25,NW,317,10.0,13.0,16,0.00,,,0.00,777,Wunderground v.1.15,2013-04-06 18:44:00,
2013-04-06 14:50:00,43.5,0.2,30.25,North,11,9.0,9.0,16,0.00,,,0.00,763,Wunderground v.1.15,2013-04-06 18:50:00,
2013-04-06 14:56:00,43.6,0.3,30.25,WNW,300,7.0,13.0,16,0.00,,,0.00,752,Wunderground v.1.15,2013-04-06 18:56:00,
2013-04-06 15:02:00,43.8,-0.9,30.25,WNW,284,9.0,13.0,15,0.00,,,0.00,738,Wunderground v.1.15,2013-04-06 19:02:00,
2013-04-06 15:08:00,43.8,-0.9,30.25,NNW,334,9.0,13.0,15,0.00,,,0.00,728,Wunderground v.1.15,2013-04-06 19:08:00,
2013-04-06 15:14:00,44.2,-2.1,30.25,NW,319,9.0,9.0,14,0.00,,,0.00,710,Wunderground v.1.15,2013-04-06 19:14:00,
2013-04-06 15:20:00,44.3,-0.5,30.25,NW,305,11.0,11.0,15,0.00,,,0.00,694,Wunderground v.1.15,2013-04-06 19:20:00,
2013-04-06 15:26:00,44.6,-0.3,30.25,NW,304,9.0,11.0,15,0.00,,,0.00,679,Wunderground v.1.15,2013-04-06 19:26:00,
2013-04-06 15:32:00,44.6,-1.8,30.25,NW,317,8.0,12.0,14,0.00,,,0.00,664,Wunderground v.1.15,2013-04-06 19:32:00,
2013-04-06 15:38:00,44.6,-1.8,30.25,NNW,340,8.0,12.0,14,0.00,,,0.00,647,Wunderground v.1.15,2013-04-06 19:38:00,
2013-04-06 15:44:00,45.2,0.2,30.25,NNW,327,7.0,9.0,15,0.00,,,0.00,629,Wunderground v.1.15,2013-04-06 19:44:00,
2013-04-06 15:50:00,45.7,-0.9,30.25,NNE,22,6.0,9.0,14,0.00,,,0.00,612,Wunderground v.1.15,2013-04-06 19:50:00,
2013-04-06 15:56:00,44.9,-1.5,30.25,NW,308,8.0,11.0,14,0.00,,,0.00,596,Wunderground v.1.15,2013-04-06 19:56:00,
2013-04-06 16:02:00,45.4,0.4,30.25,NNW,342,8.0,9.0,15,0.00,,,0.00,575,Wunderground v.1.15,2013-04-06 20:02:00,
2013-04-06 16:08:00,46.0,0.8,30.25,NW,323,4.0,9.0,15,0.00,,,0.00,557,Wunderground v.1.15,2013-04-06 20:08:00,
2013-04-06 16:14:00,46.7,1.4,30.25,NW,315,4.0,13.0,15,0.00,,,0.00,538,Wunderground v.1.15,2013-04-06 20:14:00,
2013-04-06 16:20:00,46.1,0.9,30.25,WNW,284,6.0,10.0,15,0.00,,,0.00,519,Wunderground v.1.15,2013-04-06 20:20:00,
2013-04-06 16:26:00,46.1,0.9,30.25,NW,318,7.0,10.0,15,0.00,,,0.00,499,Wunderground v.1.15,2013-04-06 20:26:00,
2013-04-06 16:32:00,45.8,0.7,30.25,NW,309,8.0,11.0,15,0.00,,,0.00,480,Wunderground v.1.15,2013-04-06 20:32:00,
2013-04-06 16:38:00,45.5,0.4,30.25,NW,308,8.0,11.0,15,0.00,,,0.00,461,Wunderground v.1.15,2013-04-06 20:38:00,
2013-04-06 16:44:00,45.4,0.4,30.25,WNW,302,7.0,12.0,15,0.00,,,0.00,441,Wunderground v.1.15,2013-04-06 20:44:00,
2013-04-06 16:50:00,45.8,0.7,30.25,NW,321,7.0,9.0,15,0.00,,,0.00,420,Wunderground v.1.15,2013-04-06 20:50:00,
2013-04-06 16:56:00,45.5,0.4,30.26,NW,304,8.0,11.0,15,0.00,,,0.00,399,Wunderground v.1.15,2013-04-06 20:56:00,
2013-04-06 17:02:00,45.4,0.4,30.26,NW,313,8.0,11.0,15,0.00,,,0.00,378,Wunderground v.1.15,2013-04-06 21:02:00,
2013-04-06 17:08:00,45.8,-0.8,30.26,WNW,295,7.0,11.0,14,0.00,,,0.00,357,Wunderground v.1.15,2013-04-06 21:08:00,
2013-04-06 17:14:00,46.0,0.8,30.26,NW,312,7.0,9.0,15,0.00,,,0.00,338,Wunderground v.1.15,2013-04-06 21:14:00,
2013-04-06 17:20:00,46.1,0.9,30.26,NW,304,6.0,6.0,15,0.00,,,0.00,316,Wunderground v.1.15,2013-04-06 21:20:00,
2013-04-06 17:26:00,46.5,1.2,30.27,WSW,258,4.0,9.0,15,0.00,,,0.00,297,Wunderground v.1.15,2013-04-06 21:26:00,
2013-04-06 17:32:00,46.8,1.5,30.27,NW,306,4.0,6.0,15,0.00,,,0.00,267,Wunderground v.1.15,2013-04-06 21:32:00,
2013-04-06 17:38:00,46.8,1.5,30.27,West,271,5.0,9.0,15,0.00,,,0.00,253,Wunderground v.1.15,2013-04-06 21:38:00,
2013-04-06 17:44:00,46.8,2.9,30.27,WNW,296,4.0,9.0,16,0.00,,,0.00,223,Wunderground v.1.15,2013-04-06 21:44:00,
2013-04-06 17:50:00,46.2,1.0,30.27,WNW,303,5.0,9.0,15,0.00,,,0.00,178,Wunderground v.1.15,2013-04-06 21:50:00,
2013-04-06 17:56:00,45.8,0.7,30.28,West,281,6.0,9.0,15,0.00,,,0.00,163,Wunderground v.1.15,2013-04-06 21:56:00,
2013-04-06 18:02:00,46.0,0.8,30.28,WSW,244,4.0,9.0,15,0.00,,,0.00,146,Wunderground v.1.15,2013-04-06 22:02:00,
2013-04-06 18:08:00,46.1,2.3,30.28,WSW,254,2.0,9.0,16,0.00,,,0.00,151,Wunderground v.1.15,2013-04-06 22:08:00,
2013-04-06 18:14:00,46.1,0.9,30.29,NW,308,5.0,7.0,15,0.00,,,0.00,134,Wunderground v.1.15,2013-04-06 22:14:00,
2013-04-06 18:20:00,46.0,0.8,30.29,NW,308,5.0,5.0,15,0.00,,,0.00,102,Wunderground v.1.15,2013-04-06 22:20:00,
2013-04-06 18:26:00,46.0,0.8,30.30,NW,308,2.0,7.0,15,0.00,,,0.00,60,Wunderground v.1.15,2013-04-06 22:26:00,
2013-04-06 18:32:00,45.7,0.6,30.30,SW,236,2.0,7.0,15,0.00,,,0.00,49,Wunderground v.1.15,2013-04-06 22:32:00,
2013-04-06 18:38:00,45.7,2.0,30.30,WNW,302,2.0,7.0,16,0.00,,,0.00,35,Wunderground v.1.15,2013-04-06 22:38:00,
2013-04-06 18:44:00,45.5,1.8,30.30,WNW,302,3.0,7.0,16,0.00,,,0.00,32,Wunderground v.1.15,2013-04-06 22:44:00,
2013-04-06 18:50:00,45.2,0.2,30.30,WNW,302,2.0,7.0,15,0.00,,,0.00,21,Wunderground v.1.15,2013-04-06 22:50:00,
2013-04-06 18:56:00,45.1,2.8,30.31,WNW,303,2.0,7.0,17,0.00,,,0.00,18,Wunderground v.1.15,2013-04-06 22:56:00,
2013-04-06 19:02:00,44.9,2.6,30.31,WNW,302,1.0,7.0,17,0.00,,,0.00,14,Wunderground v.1.15,2013-04-06 23:02:00,
2013-04-06 19:08:00,44.6,2.4,30.31,WNW,302,2.0,7.0,17,0.00,,,0.00,9,Wunderground v.1.15,2013-04-06 23:08:00,
2013-04-06 19:14:00,44.3,2.1,30.32,WNW,302,1.0,5.0,17,0.00,,,0.00,7,Wunderground v.1.15,2013-04-06 23:14:00,
2013-04-06 19:20:00,44.1,2.0,30.32,WNW,302,2.0,5.0,17,0.00,,,0.00,0,Wunderground v.1.15,2013-04-06 23:20:00,
2013-04-06 19:26:00,43.9,3.0,30.32,WNW,302,2.0,5.0,18,0.00,,,0.00,0,Wunderground v.1.15,2013-04-06 23:26:00,
2013-04-06 19:32:00,43.8,3.0,30.32,WNW,302,1.0,5.0,18,0.00,,,0.00,0,Wunderground v.1.15,2013-04-06 23:32:00,
2013-04-06 19:38:00,43.5,2.7,30.32,WSW,238,1.0,5.0,18,0.00,,,0.00,0,Wunderground v.1.15,2013-04-06 23:38:00,
2013-04-06 19:44:00,43.3,3.7,30.33,WSW,238,1.0,2.0,19,0.00,,,0.00,0,Wunderground v.1.15,2013-04-06 23:44:00,
2013-04-06 19:50:00,43.1,3.6,30.33,WSW,255,0.0,2.0,19,0.00,,,0.00,0,Wunderground v.1.15,2013-04-06 23:50:00,
2013-04-06 19:56:00,42.8,3.3,30.34,WSW,255,0.0,2.0,19,0.00,,,0.00,0,Wunderground v.1.15,2013-04-06 23:56:00,
2013-04-06 20:02:00,42.6,4.3,30.34,WSW,255,0.0,2.0,20,0.00,,,0.00,0,Wunderground v.1.15,2013-04-07 00:02:00,
2013-04-06 20:08:00,42.5,5.2,30.34,WSW,255,0.0,2.0,21,0.00,,,0.00,0,Wunderground v.1.15,2013-04-07 00:08:00,
2013-04-06 20:14:00,42.2,5.0,30.35,WSW,255,0.0,2.0,21,0.00,,,0.00,0,Wunderground v.1.15,2013-04-07 00:14:00,
2013-04-06 20:20:00,41.9,5.8,30.35,WSW,255,0.0,2.0,22,0.00,,,0.00,0,Wunderground v.1.15,2013-04-07 00:20:00,
2013-04-06 20:28:00,41.6,7.4,30.35,WSW,255,0.0,2.0,24,0.00,,,0.00,0,Wunderground v.1.15,2013-04-07 00:28:00,
2013-04-06 20:34:00,41.2,6.1,30.35,WSW,255,0.0,2.0,23,0.00,,,0.00,0,Wunderground v.1.15,2013-04-07 00:34:00,
2013-04-06 20:40:00,40.9,7.7,30.35,WSW,255,0.0,2.0,25,0.00,,,0.00,0,Wunderground v.1.15,2013-04-07 00:40:00,
2013-04-06 20:46:00,40.5,7.4,30.35,WSW,255,0.0,2.0,25,0.00,,,0.00,0,Wunderground v.1.15,2013-04-07 00:46:00,
2013-04-06 20:52:00,40.1,7.0,30.35,WSW,255,0.0,2.0,25,0.00,,,0.00,0,Wunderground v.1.15,2013-04-07 00:52:00,
2013-04-06 20:58:00,39.8,8.5,30.36,WSW,255,0.0,2.0,27,0.00,,,0.00,0,Wunderground v.1.15,2013-04-07 00:58:00,
2013-04-06 21:04:00,39.5,7.4,30.36,WSW,255,0.0,2.0,26,0.00,,,0.00,0,Wunderground v.1.15,2013-04-07 01:04:00,
2013-04-06 21:10:00,39.2,8.0,30.36,WSW,255,0.0,0.0,27,0.00,,,0.00,0,Wunderground v.1.15,2013-04-07 01:10:00,
2013-04-06 21:16:00,39.1,8.7,30.36,WSW,255,0.0,0.0,28,0.00,,,0.00,0,Wunderground v.1.15,2013-04-07 01:16:00,
2013-04-06 21:22:00,38.9,7.7,30.36,WSW,255,0.0,0.0,27,0.00,,,0.00,0,Wunderground v.1.15,2013-04-07 01:22:00,
2013-04-06 21:28:00,38.5,8.2,30.36,WSW,255,0.0,0.0,28,0.00,,,0.00,0,Wunderground v.1.15,2013-04-07 01:28:00,
2013-04-06 21:34:00,38.2,7.9,30.36,WSW,255,0.0,0.0,28,0.00,,,0.00,0,Wunderground v.1.15,2013-04-07 01:34:00,
2013-04-06 21:40:00,37.9,8.4,30.36,WSW,255,0.0,0.0,29,0.00,,,0.00,0,Wunderground v.1.15,2013-04-07 01:40:00,
2013-04-06 21:46:00,37.5,11.0,30.36,WSW,255,0.0,0.0,33,0.00,,,0.00,0,Wunderground v.1.15,2013-04-07 01:46:00,
2013-04-06 21:52:00,37.2,14.5,30.36,WSW,255,0.0,1.0,39,0.00,,,0.00,0,Wunderground v.1.15,2013-04-07 01:52:00,
2013-04-06 21:58:00,36.8,14.1,30.36,WSW,255,0.0,1.0,39,0.00,,,0.00,0,Wunderground v.1.15,2013-04-07 01:58:00,
2013-04-06 22:04:00,36.3,13.1,30.36,WSW,255,0.0,0.0,38,0.00,,,0.00,0,Wunderground v.1.15,2013-04-07 02:04:00,
2013-04-06 22:10:00,36.0,11.6,30.36,WSW,255,0.0,0.0,36,0.00,,,0.00,0,Wunderground v.1.15,2013-04-07 02:10:00,
2013-04-06 22:16:00,35.9,12.7,30.36,WSW,255,0.0,0.0,38,0.00,,,0.00,0,Wunderground v.1.15,2013-04-07 02:16:00,
2013-04-06 22:22:00,35.9,12.1,30.36,WSW,255,0.0,0.0,37,0.00,,,0.00,0,Wunderground v.1.15,2013-04-07 02:22:00,
2013-04-06 22:28:00,35.8,12.0,30.36,WSW,255,0.0,0.0,37,0.00,,,0.00,0,Wunderground v.1.15,2013-04-07 02:28:00,
2013-04-06 22:34:00,35.5,13.0,30.36,WSW,255,0.0,0.0,39,0.00,,,0.00,0,Wunderground v.1.15,2013-04-07 02:34:00,
2013-04-06 22:40:00,35.2,12.1,30.36,WSW,255,0.0,0.0,38,0.00,,,0.00,0,Wunderground v.1.15,2013-04-07 02:40:00,
2013-04-06 22:46:00,35.0,14.2,30.36,WSW,255,0.0,0.0,42,0.00,,,0.00,0,Wunderground v.1.15,2013-04-07 02:46:00,
2013-04-06 22:52:00,34.9,14.1,30.36,WSW,255,0.0,0.0,42,0.00,,,0.00,0,Wunderground v.1.15,2013-04-07 02:52:00,
2013-04-06 22:58:00,34.7,11.6,30.36,WSW,255,0.0,0.0,38,0.00,,,0.00,0,Wunderground v.1.15,2013-04-07 02:58:00,
2013-04-06 23:08:00,34.6,13.8,30.36,WSW,255,0.0,0.0,42,0.00,,,0.00,0,Wunderground v.1.15,2013-04-07 03:08:00,
2013-04-06 23:14:00,34.3,14.6,30.37,WSW,255,0.0,0.0,44,0.00,,,0.00,0,Wunderground v.1.15,2013-04-07 03:14:00,
2013-04-06 23:20:00,34.1,14.4,30.37,WSW,255,0.0,0.0,44,0.00,,,0.00,0,Wunderground v.1.15,2013-04-07 03:20:00,
2013-04-06 23:26:00,34.0,14.3,30.37,WSW,255,0.0,1.0,44,0.00,,,0.00,0,Wunderground v.1.15,2013-04-07 03:26:00,
2013-04-06 23:32:00,34.0,12.7,30.37,WSW,255,0.0,0.0,41,0.00,,,0.00,0,Wunderground v.1.15,2013-04-07 03:32:00,
2013-04-06 23:38:00,33.8,13.6,30.37,WSW,255,0.0,0.0,43,0.00,,,0.00,0,Wunderground v.1.15,2013-04-07 03:38:00,
2013-04-06 23:44:00,33.7,13.5,30.38,WSW,255,0.0,0.0,43,0.00,,,0.00,0,Wunderground v.1.15,2013-04-07 03:44:00,
2013-04-06 23:50:00,33.5,12.8,30.38,WSW,255,0.0,0.0,42,0.00,,,0.00,0,Wunderground v.1.15,2013-04-07 03:50:00,
2013-04-06 23:56:00,33.7,14.1,30.37,WSW,255,1.0,2.0,44,0.00,,,0.00,0,Wunderground v.1.15,2013-04-07 03:56:00,